Weather in Umm al-Quwain

United Arab Emirates     25°33′11″N   55°33′03″E
temp.,
°C
wind,
m/s
gust,
m/s
humid.,
%
clouds,
%
prec.,
mm/h
press.,
hPa
HPBL,
m
12 may, wed
wed1201:00+28ssw227210 0.0 100521
04:00+27ene11710 0.0 100422
07:00+29ssw11610 0.0 100628
10:00+32wnw22450 0.0 1006261
13:00+32wnw54460 0.0 1005264
16:00+31wnw55550 0.0 1003194
19:00+29nw45690 0.0 1002109
22:00+29w22710 0.0 100414
13 may, thu
thu1301:00+28ene00690 0.0 100311
04:00+28se116144 0.0 100311
07:00+31s33440 0.0 100428
10:00+34w22330 0.0 1004273
13:00+32wnw55440 0.0 1003222
16:00+31nw68580 0.0 1002232
19:00+29nnw34680 0.0 100176
22:00+29s22650 0.0 100220
14 may, fri
fri1401:00+28wsw227062 0.0 100116
04:00+29sse34570 0.0 100139
07:00+30s23430 0.0 100240
10:00+32wsw44410 0.0 1003283
13:00+31nw56521 0.0 1001244
16:00+31nnw34580 0.0 1000201
19:00+30wnw11670 0.0 100024
22:00+29sw22740 0.0 100134
15 may, sat
sat1501:00+29sse34650 0.0 100054
04:00+29s01620 0.0 100011
07:00+31ese11500 0.0 100127
10:00+31n54510 0.0 1002349
13:00+32n44450 0.0 1001306
16:00+33nw45460 0.0 999195
19:00+31w44540 0.0 100027
22:00+30wsw11620 0.0 100111
16 may, sun
sun1601:00+29sw01680 0.0 100011
04:00+29ese22550 0.0 100011
07:00+31se22430 0.0 100224
10:00+32wnw55490 0.0 1003227
13:00+32nnw43510 0.0 1002304
16:00+32nw44510 0.0 1000231
19:00+30wnw33580 0.0 100117
22:00+29nw11640 0.0 100311